Volver al catálogo

FOSSASAT2E26

ActivoRadioaficionadoSSO
NORAD 69899·PAYLOAD·🇺🇸 United States

Lanzado Jul 7, 2026 desde Vandenberg Space Force Base

Loading…

Próximos Pases (próximas 24 horas)

TLE

ActualizadoSource: Space-Track

Época: Sep 14, 2026, 12:31 UTC

1 69899U 26156AG  26257.52200033  .00001459  00000-0  15199-3 0  9995
2 69899  97.7426 156.7430 0003254 263.2918  96.7930 14.91302114 10314

Sigue FOSSASAT2E26 en tiempo real con AllMySat

Download on the App Store